User: anonymous   Login
Location: Unspecified
(0.0000°N, 0.0000°E)
Time: 01:56:07
(UTC+00:00)
Language:

DX 1 - Orbit

View from above orbital plane
View from above orbital plane
View from above satellite
View from above satellite

Ground track
Ground track

The orbit data is extracted from the following two-line orbital elements,

1 40071U 14037C   17147.86278189 +.00000165 +00000-0 +28734-4 0  9996
2 40071 098.3352 258.1242 0009489 113.9157 246.3052 14.81008998155961
Epoch (UTC): 27 May 2017 20:42:24
Eccentricity: 0.0009489
inclination: 98.3352°
perigee height: 619 km
apogee height: 633 km
right ascension of ascending node: 258.1242°
argument of perigee: 113.9157°
revolutions per day: 14.81008998
mean anomaly at epoch: 246.3052°
orbit number at epoch: 15596

The dashed part of the orbit path shows where the satellite is in the earth's shadow,  

DLR